AKST,Max TemperatureF,Mean TemperatureF,Min TemperatureF,Max Dew PointF,MeanDew PointF,Min DewpointF,Max Humidity, Mean Humidity, Min Humidity, Max Sea Level PressureIn, Mean Sea Level PressureIn, Min Sea Level PressureIn, Max VisibilityMiles, Mean VisibilityMiles, Min VisibilityMiles, Max Wind SpeedMPH, Mean Wind SpeedMPH, Max Gust SpeedMPH,PrecipitationIn, CloudCover, Events, WindDirDegrees
2013-1-1,48,45,42,40,29,15,0,0,0,30.35,30.14,29.97,10,10,5,25,14,40,0.39,7,Rain,128
2013-1-2,44,40,36,41,38,35,0,0,0,29.99,29.91,29.83,10,7,2,30,14,41,1.69,8,Rain,131
2013-1-3,46,42,37,39,37,31,0,0,0,29.98,29.88,29.78,10,7,2,24,12,31,0.80,8,Rain,115
2013-1-4,48,43,37,38,35,27,0,0,0,30.09,30.02,29.90,10,10,8,21,9,28,0.03,7,Rain,122
2013-1-5,46,42,39,38,35,28,89,78,50,29.88,29.72,29.64,10,10,5,25,12,38,0.21,7,Rain,121
2013-1-6,42,40,37,38,35,33,0,0,0,29.82,29.72,29.48,10,9,4,20,9,28,0.17,7,Rain,121
2013-1-7,43,38,32,40,36,32,0,0,0,29.84,29.62,29.42,10,9,3,21,4,29,0.06,7,Rain,199
2013-1-8,39,36,32,36,32,28,0,0,0,29.86,29.73,29.55,10,9,2,12,4,17,0.22,5,Rain,41
2013-1-9,37,34,30,27,24,23,0,0,0,30.17,29.89,29.59,10,10,10,13,6,18,0.00,1,,347
2013-1-10,34,29,24,30,27,22,0,0,0,30.30,30.25,30.20,10,10,10,7,1,8,0.00,6,,92
2013-1-11,36,34,31,30,29,27,0,0,0,30.31,30.27,30.23,10,10,10,7,1,10,T,8,Snow,132
2013-1-12,40,36,31,35,31,27,0,0,0,30.44,30.40,30.30,10,10,10,8,0,10,0.00,8,,52
2013-1-13,41,38,35,40,37,34,0,0,0,30.42,30.40,30.38,10,6,2,10,3,14,0.09,8,Rain,131
2013-1-14,47,42,37,45,40,37,0,0,0,30.50,30.44,30.40,10,6,0,7,2,8,T,8,Fog-Rain,159
2013-1-15,45,43,41,43,40,36,0,0,0,30.50,30.42,30.37,10,8,2,14,7,22,0.09,8,Rain,172
2013-1-16,45,42,38,45,41,37,0,0,0,30.45,30.33,30.08,10,6,1,18,7,31,0.38,8,Rain,158
2013-1-17,45,44,43,43,42,39,0,0,0,30.04,29.93,29.87,10,5,1,28,13,45,0.56,8,Rain,185
2013-1-18,43,39,34,39,35,30,0,0,0,30.27,30.17,30.02,10,10,8,7,1,10,T,7,Rain,295
2013-1-19,46,41,36,41,38,34,0,0,0,30.30,30.27,30.25,10,9,2,13,2,17,0.01,6,Rain,107
2013-1-20,45,40,34,40,37,35,0,0,0,30.32,30.27,30.23,10,9,3,16,8,22,0.00,8,Rain,129
2013-1-21,44,39,33,40,36,32,0,0,0,30.23,30.08,29.87,10,9,3,14,3,18,0.01,6,,127
2013-1-22,48,41,34,40,35,28,0,0,0,29.88,29.76,29.67,10,9,6,20,11,29,0.67,6,Rain,129
2013-1-23,45,43,41,42,39,37,0,0,0,29.82,29.72,29.67,10,9,2,15,8,22,0.21,8,Rain,139
2013-1-24,44,42,40,40,38,35,0,0,0,29.83,29.64,29.37,10,10,7,24,13,36,0.20,8,Rain,128
2013-1-25,45,43,41,43,40,38,0,0,0,29.69,29.57,29.47,10,8,2,24,12,35,0.55,8,Rain,136
2013-1-26,43,42,40,40,37,33,0,0,0,29.77,29.74,29.70,10,10,7,10,6,16,0.08,7,Rain,192
2013-1-27,41,39,36,34,31,28,0,0,0,29.90,29.84,29.75,10,10,6,13,3,22,T,7,Rain-Snow,267
2013-1-28,37,36,35,36,32,25,0,0,0,30.10,29.88,29.79,10,10,6,12,3,16,0.10,8,Rain-Snow,309
2013-1-29,44,38,31,43,36,26,0,0,0,30.17,30.03,29.96,10,6,1,18,7,28,0.29,8,Rain-Snow,141
2013-1-30,44,42,39,43,40,37,0,0,0,30.22,30.12,29.87,10,8,2,21,8,29,0.55,8,Rain,134
2013-1-31,46,44,42,44,42,39,0,0,0,30.20,30.05,29.88,10,8,1,17,6,25,0.33,8,Rain,147